Simultaneous Nadir Overpasses (SNOs) Predictions

Prediction of SNOs between GOES-16 and TERRA Satellite Orbit:

Table of predicted SNOs for the next 14.0 days since TLE Epoch: 2/27/2021
Index Date Time (GOES-16) GOES-16 Lat,Lon TERRA Lat,Lon Distance(km) Time Diff (sec)
1 02/27/2021 15:41:14 0.03, -75.21 0.67, -78.20 339.99 80
2 03/01/2021 15:29:02 0.03, -75.22 0.02, -75.25 3.79 80
3 03/03/2021 15:19:29 0.03, -75.23 -0.58, -72.29 333.87 80
4 03/04/2021 03:40:52 -0.03, -75.20 -0.52, -77.48 258.88 80
5 03/06/2021 03:26:00 -0.02, -75.22 0.14, -74.53 78.44 80
6 03/08/2021 03:13:48 -0.02, -75.23 0.74, -71.57 416.04 80
7 03/08/2021 15:35:03 0.01, -75.26 0.31, -76.73 167.52 80
8 03/10/2021 15:25:30 0.00, -75.28 -0.30, -73.77 171.13 80
9 03/11/2021 03:46:54 -0.00, -75.27 -0.80, -78.97 420.59 80
